カタログに戻る

ATLAS 5 CENTAUR DEB

LostHEO
NORAD 47244·DEBRIS·🇺🇸 United States

打ち上げ Oct 17, 2018 から Cape Canaveral Space Force Station

Loading…

次のパス (今後24時間)

TLE

古いSource: Space-Track

元期: Jul 1, 2025, 20:19 UTC

1 47244U 18079EE  25182.84705924 -.00000134  00000-0  00000-0 0  9992
2 47244  13.0571  69.6404 4757785 242.4964  61.6315  1.77237774 29708

AllMySatでATLAS 5 CENTAUR DEBをリアルタイム追跡

Download on the App Store